THORAD AGENA D DEB

Satellite information

Favourite Embed

Satellite Type and Status

DEBRISIN ORBIT

Key statistics

Satellite THORAD AGENA D DEB at a glance.

Uptime

20289

Days in orbit

Revolutions

≈ 14.1

Per day

Orbit

SSO

Sun Synchronous Orbit

Inclination

100.0

Latest

Satellite identification and parameters

Extended collection of information and parameters for THORAD AGENA D DEB.

Object identification

Identified? True

Debris? True

Object name: THORAD AGENA D DEB

International designator: 1970-025CC

Object number (NORAD): 4718

Object ID (CCSDS): 4718

Country: UNITED STATES OF AMERICA (US)

Current information (Y/N): Y

RCS size: SMALL

Orbital parameters

Period: 102.475 minutes

Inclination: 100.0081 deg

SMA: 7253.908 km

Apoapsis: 949.857 km

Periapsis: 801.688 km

RAAN: 17.2926 deg

Eccentricy: 0.01021304

Argument of periapsis: 104.4017 deg

Mean anomaly: 256.8508 deg

Mean motion: 14.05221335 rev/day

Mean motion (dot): 0.00000902 rev/day2

B* drag term: 0.0005633255 1/REarth

Two-line elements (TLE)

Creation date: Oct. 25, 2025, 3:11 a.m.

Reference frame: TEME

Reference center: EARTH

Epoch: Oct. 24, 2025, 4:17 p.m. UTC

TLE line 0: 0 THORAD AGENA D DEB

TLE line 1: 1 04718U 70025CC 25297.67869435 .00000902 00000-0 56333-3 0 9991

TLE line 2: 2 04718 100.0081 17.2926 0102130 104.4017 256.8508 14.05221335821093

Live tracking on map

Real-time ground track for satellite THORAD AGENA D DEB.

In-orbit conjunctions

A list of the most updated potential collisions computed for object THORAD AGENA D DEB.

Target Orbit TCA Probability of collision Miss distance Type
FENGYUN 1C DEB SSO 2025-10-23 05:09:59 0.0001391646 136.0 (m) DEBRIS
COSMOS 1275 DEB LEO 2025-04-24 06:17:51 0.0001598533 230.0 (m) DEBRIS

Associated space launch

Meteorological research and development satellite

THORAD AGENA D DEB was lifted into orbit during the mission ‘Thorad SLV-2G Agena D | Nimbus 4’, on board a Thorad SLV-2G Agena D space rocket.

The launch took place on April 8, 1970, 8:17 a.m. from Space Launch Complex 2E.

For more information about the launch, click the button.

Launch to space Thorad SLV-2G Agena D | Nimbus 4
Thorad SLV-2G Agena D | Nimbus 4

Agency: N/A

Status: Launch Successful

Launch date: April 8, 1970, 8:17 a.m. UTC

Rocket: Thorad SLV-2G Agena D

Launch pad: Space Launch Complex 2E

Location: Vandenberg SFB, CA, USA

...

Latest news about this satellite

There are no fresh news available about this satellite. Check back as we update our databases every day.


Newsletter sign-up

Weekly statistics, charts and insights to help you stay on top of the space industry.